GW1821 Weather Reports


Display with metric or nautical units.
time (UTC)temp
F
wind
direction
speed
MPH
gust
MPH
rain 1hr
in
rain 24hr
in
rain mn
in
humidity
%
barometer
mb
20260902194946 88 34 1.0 5.0 0.00 0.00 0.00 59 1009.4
20260902194220 87 276 1.0 2.0 0.00 0.00 0.00 57 1009.4
20260902193722 87 337 1.0 3.0 0.00 0.00 0.00 59 1009.5
20260902193214 87 119 2.0 4.0 0.00 0.00 0.00 57 1009.5
20260902192925 87 311 2.0 5.0 0.00 0.00 0.00 58 1009.5
20260902192152 87 37 2.0 5.0 0.00 0.00 0.00 58 1009.6
20260902191653 87 344 1.0 3.0 0.00 0.00 0.00 57 1009.7
20260902191410 87 333 1.0 3.0 0.00 0.00 0.00 58 1009.8
20260902190646 86 30 1.0 4.0 0.00 0.00 0.00 60 1009.8
20260902190142 87 45 2.0 5.0 0.00 0.00 0.00 57 1009.7
20260902185639 86 35 1.0 5.0 0.00 0.00 0.00 60 1009.8
20260902185136 86 114 2.0 5.0 0.00 0.00 0.00 56 1009.8
20260902184637 86 5 1.0 5.0 0.00 0.00 0.00 59 1009.9
20260902184115 85 317 1.0 4.0 0.00 0.00 0.00 61 1010.0
20260902183613 85 95 2.0 5.0 0.00 0.00 0.00 60 1010.0
20260902183114 84 37 1.0 5.0 0.00 0.00 0.00 61 1010.1
20260902182837 84 180 1.0 5.0 0.00 0.00 0.00 62 1010.2
20260902182111 84 53 2.0 5.0 0.00 0.00 0.00 63 1010.3
20260902181613 84 171 2.0 6.0 0.00 0.00 0.00 62 1010.3
20260902181108 84 178 2.0 10.0 0.00 0.00 0.00 62 1010.4
20260902180830 84 355 2.0 10.0 0.00 0.00 0.00 62 1010.3
20260902180107 84 167 2.0 9.0 0.00 0.00 0.00 65 1010.3
20260902175606 83 203 2.0 9.0 0.00 0.00 0.00 62 1010.3
20260902175051 83 176 1.0 6.0 0.00 0.00 0.00 64 1010.3
20260902174814 83 153 1.0 4.0 0.00 0.00 0.00 62 1010.4
20260902174050 82 13 1.0 4.0 0.00 0.00 0.00 65 1010.4
20260902173812 82 55 1.0 5.0 0.00 0.00 0.00 63 1010.6
20260902173040 82 173 2.0 8.0 0.00 0.00 0.00 66 1010.7
20260902172540 81 163 3.0 8.0 0.00 0.00 0.00 65 1010.8
20260902172041 81 163 2.0 7.0 0.00 0.00 0.00 65 1010.8
20260902171537 80 184 1.0 5.0 0.00 0.00 0.00 68 1010.6
20260902171033 80 181 1.0 5.0 0.00 0.00 0.00 67 1010.6
20260902170530 80 138 1.0 5.0 0.00 0.00 0.00 68 1010.8
20260902170255 79 288 1.0 4.0 0.00 0.00 0.00 70 1010.8
20260902165532 79 22 1.0 4.0 0.00 0.00 0.00 69 1010.7
20260902165020 78 182 1.0 4.0 0.00 0.00 0.00 69 1010.7
20260902164522 78 42 1.0 4.0 0.00 0.00 0.00 71 1010.7
20260902164013 78 65 1.0 4.0 0.00 0.00 0.00 73 1010.7
20260902163514 77 59 1.0 4.0 0.00 0.00 0.00 73 1010.7
20260902163010 77 30 1.0 3.0 0.00 0.00 0.00 74 1010.8
20260902162737 77 294 2.0 4.0 0.00 0.00 0.00 74 1010.8
20260902162001 76 218 2.0 4.0 0.00 0.00 0.00 73 1011.0
20260902161503 76 338 2.0 3.0 0.00 0.00 0.00 74 1011.1
20260902160957 76 14 1.0 4.0 0.00 0.00 0.00 75 1010.9
20260902160456 76 336 1.0 4.0 0.00 0.00 0.00 78 1010.6
20260902155956 75 5 1.0 3.0 0.00 0.00 0.00 78 1010.6
20260902155456 75 15 1.0 3.0 0.00 0.00 0.00 78 1010.5
20260902154951 75 332 1.0 3.0 0.00 0.00 0.00 79 1010.5
20260902154448 74 329 1.0 4.0 0.00 0.00 0.00 79 1010.5
20260902153939 74 330 1.0 4.0 0.00 0.00 0.00 78 1010.5
20260902153438 74 325 1.0 4.0 0.00 0.00 0.00 79 1010.5
20260902153155 74 177 1.0 2.0 0.00 0.00 0.00 79 1010.5
20260902152658 74 177 1.0 3.0 0.00 0.00 0.00 79 1010.7
20260902151931 74 175 1.0 5.0 0.00 0.00 0.00 80 1010.7
20260902151428 73 279 1.0 5.0 0.00 0.00 0.00 82 1010.6
20260902150924 73 205 1.0 5.0 0.00 0.00 0.00 82 1010.7
20260902150408 73 204 1.0 5.0 0.00 0.00 0.00 82 1010.8
20260902145905 72 166 1.0 3.0 0.00 0.00 0.00 82 1010.9
20260902145621 72 40 1.0 3.0 0.00 0.00 0.00 81 1010.6
20260902144858 72 32 1.0 3.0 0.00 0.00 0.00 83 1010.3
20260902144357 71 29 1.0 2.0 0.00 0.00 0.00 83 1010.3
20260902144113 71 29 1.0 3.0 0.00 0.00 0.00 83 1010.4
20260902143340 71 29 1.0 3.0 0.00 0.00 0.00 84 1010.5
20260902142826 71 24 1.0 3.0 0.00 0.00 0.00 84 1010.7
20260902142815 70 50 1.0 3.0 0.00 0.00 0.00 84 1010.7
20260902141824 70 51 0.0 3.0 0.00 0.00 0.00 85 1010.8
20260902141322 70 131 1.0 3.0 0.00 0.00 0.00 85 1010.8
20260902141037 69 131 1.0 3.0 0.00 0.00 0.00 85 1010.9
20260902140543 69 36 1.0 4.0 0.00 0.00 0.00 85 1010.8
20260902135814 69 162 1.0 4.0 0.00 0.00 0.00 86 1010.9
20260902135531 69 163 1.0 5.0 0.00 0.00 0.00 86 1010.8
20260902135032 69 162 1.0 5.0 0.00 0.00 0.00 85 1010.9
20260902134308 69 161 2.0 6.0 0.00 0.00 0.00 86 1010.7
20260902133952 69 157 2.0 8.0 0.00 0.00 0.00 86 1010.7
20260902133224 69 181 1.0 8.0 0.00 0.00 0.00 86 1010.8
20260902132713 68 160 1.0 5.0 0.00 0.00 0.00 87 1010.9
20260902132212 68 160 1.0 5.0 0.00 0.00 0.00 87 1010.9
20260902131711 68 134 0.0 3.0 0.00 0.00 0.00 88 1010.8
20260902131150 68 76 0.0 1.0 0.00 0.00 0.00 87 1011.0
20260902131137 68 76 0.0 3.0 0.00 0.00 0.00 88 1010.9
20260902130146 67 76 0.0 3.0 0.00 0.00 0.00 88 1010.8
20260902125900 67 129 0.0 1.0 0.00 0.00 0.00 88 1011.0
20260902125138 67 129 0.0 1.0 0.00 0.00 0.00 89 1010.9
20260902124631 67 129 0.0 1.0 0.00 0.00 0.00 89 1010.9
20260902124132 67 129 0.0 0.0 0.00 0.00 0.00 88 1011.1
20260902123631 67 129 0.0 1.0 0.00 0.00 0.00 88 1011.1
20260902123131 67 129 0.0 1.0 0.00 0.00 0.00 88 1011.1
20260902122608 67 129 0.0 1.0 0.00 0.00 0.00 88 1010.8
20260902122102 67 129 0.0 1.0 0.00 0.00 0.00 88 1010.8
20260902121545 67 129 0.0 1.0 0.00 0.00 0.00 88 1010.9
20260902121303 67 129 0.0 1.0 0.00 0.00 0.00 88 1010.9
20260902120755 67 129 0.0 2.0 0.00 0.00 0.00 88 1010.9
20260902120029 67 129 0.0 2.0 0.00 0.00 0.00 88 1011.0
20260902120003 67 129 0.0 0.0 0.00 0.00 0.00 88 1011.3
20260902114959 67 129 0.0 2.0 0.00 0.00 0.00 88 1011.3
20260902114458 67 129 1.0 2.0 0.00 0.00 0.00 88 1011.5
20260902113946 67 129 1.0 6.0 0.00 0.00 0.00 88 1011.3
20260902113441 67 129 0.0 6.0 0.00 0.00 0.00 87 1011.2
20260902112918 67 209 0.0 1.0 0.00 0.00 0.00 87 1011.1
20260902112413 67 209 0.0 1.0 0.00 0.00 0.00 87 1011.1
20260902111910 67 209 0.0 2.0 0.00 0.00 0.00 87 1011.0
20260902111403 67 209 0.0 2.0 0.00 0.00 0.00 87 1011.0
20260902110848 67 209 0.0 0.0 0.00 0.00 0.00 87 1011.1
20260902110346 68 209 0.0 0.0 0.00 0.00 0.00 87 1010.9
20260902105832 67 209 0.0 1.0 0.00 0.00 0.00 87 1010.8
20260902105320 68 209 0.0 2.0 0.00 0.00 0.00 87 1011.1
20260902104818 68 209 0.0 2.0 0.00 0.00 0.00 87 1011.0
20260902104311 68 209 0.0 2.0 0.00 0.00 0.00 87 1011.1
20260902103808 68 219 1.0 6.0 0.00 0.00 0.00 87 1011.2
20260902103305 67 192 1.0 6.0 0.00 0.00 0.00 87 1011.2
20260902102805 67 182 1.0 3.0 0.00 0.00 0.00 87 1011.0
20260902102300 68 183 1.0 2.0 0.00 0.00 0.00 87 1011.2
20260902101758 67 184 1.0 4.0 0.00 0.00 0.00 87 1011.0
20260902101512 67 184 1.0 4.0 0.00 0.00 0.00 88 1010.9
20260902100744 67 185 0.0 1.0 0.00 0.00 0.00 87 1010.4
20260902100239 67 185 0.0 1.0 0.00 0.00 0.00 88 1010.2
20260902095736 67 185 0.0 0.0 0.00 0.00 0.00 88 1010.2
20260902095440 67 185 0.0 0.0 0.00 0.00 0.00 88 1010.2
20260902094712 67 185 0.0 0.0 0.00 0.00 0.00 88 1010.1
20260902094201 67 185 0.0 0.0 0.00 0.00 0.00 88 1009.9
20260902093652 67 185 0.0 0.0 0.00 0.00 0.00 88 1009.6
20260902093145 67 185 0.0 0.0 0.00 0.00 0.00 88 1009.5
20260902092625 67 185 0.0 0.0 0.00 0.00 0.00 88 1009.5
20260902092113 68 185 0.0 0.0 0.00 0.00 0.00 88 1009.7
20260902091814 68 185 0.0 0.0 0.00 0.00 0.00 88 1009.7
20260902091049 68 185 0.0 0.0 0.00 0.00 0.00 88 1009.8
20260902090527 68 185 0.0 0.0 0.00 0.00 0.00 89 1009.8
20260902090230 68 185 0.0 0.0 0.00 0.00 0.00 89 1009.8
20260902085512 68 185 0.0 0.0 0.00 0.00 0.00 89 1009.9
20260902084959 68 185 0.0 0.0 0.00 0.00 0.00 88 1010.3
20260902084454 68 185 0.0 0.0 0.00 0.00 0.00 88 1010.4
20260902083917 68 185 0.0 0.0 0.00 0.00 0.00 88 1010.3
20260902083405 68 185 0.0 0.0 0.00 0.00 0.00 88 1010.3
20260902082851 68 185 0.0 0.0 0.00 0.00 0.00 88 1010.3
20260902082613 68 185 0.0 0.0 0.00 0.00 0.00 88 1010.5
20260902081835 68 185 0.0 2.0 0.00 0.00 0.00 88 1010.6
20260902081328 68 185 0.0 2.0 0.00 0.00 0.00 88 1010.8
20260902081255 68 185 0.0 2.0 0.00 0.00 0.00 88 1010.7
20260902080525 68 185 0.0 2.0 0.00 0.00 0.00 88 1010.6
20260902075741 68 185 0.0 1.0 0.00 0.00 0.00 88 1010.4
20260902075443 68 185 0.0 1.0 0.00 0.00 0.00 87 1010.6
20260902074720 68 185 1.0 3.0 0.00 0.00 0.00 87 1010.7
20260902074219 68 185 1.0 3.0 0.00 0.00 0.00 87 1010.7
20260902073719 68 196 0.0 3.0 0.00 0.00 0.00 87 1010.8
20260902073218 68 198 0.0 0.0 0.00 0.00 0.00 87 1010.6
20260902072721 68 198 0.0 0.0 0.00 0.00 0.00 86 1010.7
20260902072219 69 198 0.0 0.0 0.00 0.00 0.00 86 1010.8
20260902071717 69 198 0.0 1.0 0.00 0.00 0.00 86 1010.8
20260902071202 69 198 0.0 1.0 0.00 0.00 0.00 85 1011.0
20260902070650 69 198 0.0 1.0 0.00 0.00 0.00 84 1011.1
20260902070144 69 198 0.0 1.0 0.00 0.00 0.00 84 1011.2
20260902065900 69 198 0.0 1.0 0.00 0.00 0.00 83 1011.3
20260902065134 69 198 0.0 2.0 0.00 0.00 0.00 82 1011.5
20260902064629 69 198 1.0 3.0 0.00 0.00 0.00 82 1011.6
20260902064106 69 208 1.0 3.0 0.00 0.00 0.00 82 1011.7
20260902063600 69 316 0.0 2.0 0.00 0.00 0.00 82 1011.6
20260902063103 69 317 0.0 1.0 0.00 0.00 0.00 82 1011.3
20260902062601 69 317 0.0 1.0 0.00 0.00 0.00 82 1011.3
20260902062017 69 317 0.0 1.0 0.00 0.00 0.00 82 1011.2
20260902061515 69 317 0.0 1.0 0.00 0.00 0.00 82 1010.9
20260902061013 69 317 0.0 1.0 0.00 0.00 0.00 82 1010.7
20260902060512 69 317 0.0 2.0 0.00 0.00 0.00 82 1010.2
20260902060012 70 317 1.0 2.0 0.00 0.00 0.00 82 1010.1
20260902055734 70 334 0.0 2.0 0.00 0.00 0.00 81 1010.3
20260902055236 70 349 0.0 1.0 0.00 0.00 0.00 81 1010.6
20260902054515 70 5 0.0 1.0 0.00 0.00 0.00 80 1010.8
20260902054010 70 344 0.0 1.0 0.00 0.00 0.00 80 1010.9
20260902053507 70 344 0.0 1.0 0.00 0.00 0.00 79 1011.0
20260902053009 70 327 0.0 0.0 0.00 0.00 0.00 80 1011.1
20260902052456 70 327 0.0 0.0 0.00 0.00 0.00 79 1011.2
20260902051948 70 327 0.0 1.0 0.00 0.00 0.00 80 1011.3
20260902051657 70 327 0.0 2.0 0.00 0.00 0.00 79 1011.3
20260902050934 70 327 0.0 2.0 0.00 0.00 0.00 79 1011.3
20260902050431 70 327 1.0 2.0 0.00 0.00 0.00 78 1011.2
20260902050144 70 327 1.0 4.0 0.00 0.00 0.00 78 1011.2
20260902045411 70 327 1.0 4.0 0.00 0.00 0.00 78 1010.9
20260902044911 70 325 0.0 2.0 0.00 0.00 0.00 79 1010.7
20260902044411 70 325 0.0 1.0 0.00 0.00 0.00 78 1010.8
20260902043905 70 325 0.0 1.0 0.00 0.00 0.00 79 1010.9
20260902043404 70 325 0.0 1.0 0.00 0.00 0.00 79 1010.8
20260902042859 70 325 0.0 1.0 0.00 0.00 0.00 80 1010.7
20260902042344 70 325 0.0 0.0 0.00 0.00 0.00 79 1010.5
20260902042107 71 325 0.0 0.0 0.00 0.00 0.00 80 1010.3
20260902041344 71 325 0.0 1.0 0.00 0.00 0.00 81 1010.3
20260902041117 71 325 0.0 1.0 0.00 0.00 0.00 80 1010.6
20260902040317 71 325 0.0 1.0 0.00 0.00 0.00 81 1010.7
20260902035808 71 325 0.0 0.0 0.00 0.00 0.00 80 1010.7
20260902035453 71 325 0.0 0.0 0.00 0.00 0.00 80 1010.7
20260902034725 71 325 0.0 0.0 0.00 0.00 0.00 80 1010.7
20260902034215 71 325 0.0 0.0 0.00 0.00 0.00 79 1010.9
20260902033713 71 325 0.0 0.0 0.00 0.00 0.00 79 1011.1
20260902033215 72 325 0.0 0.0 0.00 0.00 0.00 78 1011.3
20260902032708 72 325 0.0 0.0 0.00 0.00 0.00 77 1011.3
20260902032208 72 325 0.0 0.0 0.00 0.00 0.00 78 1011.5
20260902031706 72 325 0.0 0.0 0.00 0.00 0.00 77 1011.3
20260902031154 72 325 0.0 0.0 0.00 0.00 0.00 78 1011.2
20260902030654 72 325 0.0 0.0 0.00 0.00 0.00 76 1011.0
20260902030151 72 325 0.0 0.0 0.00 0.00 0.00 77 1011.2
20260902025908 72 325 0.0 0.0 0.00 0.00 0.00 77 1011.1
20260902025141 73 325 0.0 0.0 0.00 0.00 0.00 75 1011.1
20260902024639 73 325 0.0 0.0 0.00 0.00 0.00 76 1011.0
20260902024112 73 325 0.0 0.0 0.00 0.00 0.00 76 1010.7
20260902023601 73 325 0.0 0.0 0.00 0.00 0.00 76 1010.8
20260902023052 74 325 0.0 0.0 0.00 0.00 0.00 74 1010.9
20260902022816 74 325 0.0 0.0 0.00 0.00 0.00 74 1010.9
20260902022029 74 325 0.0 0.0 0.00 0.00 0.00 72 1010.9
20260902021524 74 325 0.0 0.0 0.00 0.00 0.00 72 1011.0
20260902021013 75 325 0.0 1.0 0.00 0.00 0.00 70 1011.0
20260902020512 75 325 0.0 1.0 0.00 0.00 0.00 71 1010.9
20260902020002 75 325 0.0 1.0 0.00 0.00 0.00 68 1010.8
20260902015453 76 325 0.0 1.0 0.00 0.00 0.00 67 1010.8
20260902014954 76 325 0.0 1.0 0.00 0.00 0.00 65 1010.9
20260902014437 76 324 0.0 1.0 0.00 0.00 0.00 65 1010.7
20260902013941 76 324 0.0 1.0 0.00 0.00 0.00 65 1010.7
20260902013434 77 324 0.0 1.0 0.00 0.00 0.00 67 1010.7
20260902013419 77 319 0.0 1.0 0.00 0.00 0.00 66 1010.6
20260902012419 77 314 0.0 1.0 0.00 0.00 0.00 66 1010.5
20260902011909 77 314 0.0 1.0 0.00 0.00 0.00 65 1010.5
20260902011404 77 314 0.0 1.0 0.00 0.00 0.00 64 1010.5
20260902010851 77 314 0.0 1.0 0.00 0.00 0.00 63 1010.4
20260902010615 78 314 0.0 1.0 0.00 0.00 0.00 64 1010.2
20260902005841 78 314 0.0 1.0 0.00 0.00 0.00 65 1010.3
20260902005554 78 314 0.0 0.0 0.00 0.00 0.00 63 1010.3
20260902004832 79 314 0.0 1.0 0.00 0.00 0.00 60 1010.5
20260902004552 79 314 0.0 2.0 0.00 0.00 0.00 61 1010.5
20260902003832 79 314 0.0 2.0 0.00 0.00 0.00 60 1010.5
20260902003306 80 314 1.0 2.0 0.00 0.00 0.00 61 1010.6
20260902002748 80 314 0.0 2.0 0.00 0.00 0.00 60 1010.5
20260902002246 80 314 0.0 2.0 0.00 0.00 0.00 61 1010.5
20260902002013 81 314 0.0 1.0 0.00 0.00 0.00 58 1010.6
20260902001239 81 316 0.0 1.0 0.00 0.00 0.00 58 1010.7
20260902000736 82 313 0.0 2.0 0.00 0.00 0.00 57 1010.7
20260902000227 82 312 0.0 2.0 0.00 0.00 0.00 55 1010.5
20260901235726 83 300 0.0 2.0 0.00 0.00 0.00 53 1010.5
20260901235444 83 286 0.0 2.0 0.00 0.00 0.00 54 1010.6
20260901234946 83 291 0.0 2.0 0.00 0.00 0.00 54 1010.7
20260901234218 84 298 0.0 2.0 0.00 0.00 0.00 50 1010.8
20260901233719 84 310 0.0 2.0 0.00 0.00 0.00 51 1010.7
20260901233216 84 295 0.0 3.0 0.00 0.00 0.00 48 1010.7
20260901232713 84 293 1.0 4.0 0.00 0.00 0.00 48 1010.6
20260901232154 84 261 1.0 4.0 0.00 0.00 0.00 46 1010.6
20260901231647 85 228 1.0 4.0 0.00 0.00 0.00 49 1010.6
20260901231138 84 228 2.0 7.0 0.00 0.00 0.00 48 1010.6
20260901230637 85 257 2.0 7.0 0.00 0.00 0.00 47 1010.6
20260901230132 85 222 1.0 8.0 0.00 0.00 0.00 46 1010.7
20260901225614 85 269 2.0 8.0 0.00 0.00 0.00 47 1010.7
20260901225605 85 291 2.0 6.0 0.00 0.00 0.00 46 1010.7
20260901224609 85 244 1.0 4.0 0.00 0.00 0.00 47 1010.7
20260901224111 85 298 1.0 4.0 0.00 0.00 0.00 47 1010.6
20260901223108 85 275 2.0 7.0 0.00 0.00 0.00 46 1010.6
20260901222608 85 263 2.0 6.0 0.00 0.00 0.00 44 1010.6
20260901222111 85 244 2.0 7.0 0.00 0.00 0.00 45 1010.5
20260901221608 85 244 2.0 7.0 0.00 0.00 0.00 46 1010.5
20260901221103 85 263 3.0 10.0 0.00 0.00 0.00 45 1010.5
20260901220603 85 86 3.0 10.0 0.00 0.00 0.00 45 1010.5
20260901220059 86 254 3.0 9.0 0.00 0.00 0.00 45 1010.5
20260901215559 86 282 2.0 6.0 0.00 0.00 0.00 43 1010.6
20260901215320 86 221 2.0 8.0 0.00 0.00 0.00 43 1010.5
20260901214809 86 246 2.0 8.0 0.00 0.00 0.00 43 1010.4
20260901214050 86 214 2.0 8.0 0.00 0.00 0.00 43 1010.4
20260901213547 86 257 2.0 8.0 0.00 0.00 0.00 42 1010.3
20260901213038 87 263 1.0 4.0 0.00 0.00 0.00 44 1010.2
20260901212539 87 231 2.0 7.0 0.00 0.00 0.00 43 1010.2
20260901212031 87 255 2.0 7.0 0.00 0.00 0.00 42 1010.3
20260901211526 87 212 2.0 7.0 0.00 0.00 0.00 40 1010.2
20260901211024 87 237 2.0 7.0 0.00 0.00 0.00 40 1010.2
20260901210524 87 253 2.0 8.0 0.00 0.00 0.00 38 1010.2
20260901210023 87 269 1.0 8.0 0.00 0.00 0.00 38 1010.4
20260901205522 88 236 2.0 8.0 0.00 0.00 0.00 38 1010.3
20260901205020 88 319 2.0 8.0 0.00 0.00 0.00 39 1010.3
20260901204521 88 248 2.0 7.0 0.00 0.00 0.00 39 1010.6
20260901204019 89 249 3.0 10.0 0.00 0.00 0.00 36 1010.7
20260901203520 89 131 3.0 10.0 0.00 0.00 0.00 36 1010.7
20260901203012 89 340 1.0 4.0 0.00 0.00 0.00 38 1010.7
20260901202516 90 223 2.0 7.0 0.00 0.00 0.00 36 1010.7
20260901202012 90 326 2.0 8.0 0.00 0.00 0.00 36 1010.8
20260901201512 89 242 2.0 8.0 0.00 0.00 0.00 36 1010.8
20260901201013 90 190 2.0 8.0 0.00 0.00 0.00 40 1010.8
20260901200514 90 16 2.0 8.0 0.00 0.00 0.00 38 1010.8
20260901200009 89 346 2.0 6.0 0.00 0.00 0.00 41 1010.7
20260901195955 89 247 1.0 5.0 0.00 0.00 0.00 39 1010.8